This is the latest recevied weather packets stored in our database for station/object EA1HTW-13. If no packets are shown the sender has not sent any weather packets the latest 10 day(s).
| Time | Temp. | Humidity | Pressure | Rain* | Wind** | Luminosity | Snow |
|---|---|---|---|---|---|---|---|
| 1777960395 | 12.22° C | 84% | 1009.5 hPa | 2.79 mm | - | - | - |
| 1777959855 | 12.22° C | 84% | 1009.3 hPa | 3.3 mm | - | - | - |
| 1777959315 | 12.22° C | 84% | 1009.4 hPa | 3.05 mm | - | - | - |
| 1777958775 | 12.22° C | 84% | 1009.3 hPa | 2.79 mm | - | - | - |
| 1777958235 | 12.22° C | 84% | 1009.2 hPa | 2.29 mm | - | - | - |
| 1777957694 | 12.22° C | 85% | 1009.4 hPa | 2.03 mm | - | - | - |
| 1777957156 | 12.22° C | 85% | 1009.3 hPa | 1.78 mm | - | - | - |
| 1777956615 | 12.22° C | 85% | 1009.5 hPa | 1.52 mm | - | - | - |
| 1777956075 | 12.22° C | 85% | 1009.2 hPa | 1.27 mm | - | - | - |
| 1777955535 | 12.22° C | 85% | 1009.3 hPa | 2.79 mm | - | - | - |
| 1777954994 | 12.22° C | 85% | 1009.3 hPa | 3.56 mm | - | - | - |
| 1777954454 | 12.22° C | 85% | 1009.3 hPa | 3.56 mm | - | - | - |
| 1777953915 | 12.22° C | 85% | 1009.5 hPa | 3.05 mm | - | - | - |
| 1777953375 | 12.22° C | 84% | 1009.7 hPa | 3.3 mm | - | - | - |
| 1777952835 | 12.78° C | 81% | 1009.6 hPa | 3.3 mm | - | - | - |
| 1777952295 | 12.78° C | 81% | 1009.6 hPa | 3.3 mm | - | - | - |
| 1777951755 | 12.78° C | 81% | 1009.7 hPa | 1.78 mm | - | - | - |
| 1777951214 | 12.78° C | 81% | 1009.4 hPa | 2.79 mm | - | - | - |
| 1777950674 | 12.78° C | 81% | 1009.5 hPa | 2.79 mm | - | - | - |
| 1777950134 | 12.78° C | 81% | 1009.7 hPa | 2.79 mm | - | - | - |
| 1777949595 | 12.78° C | 81% | 1009.8 hPa | 2.29 mm | - | - | - |
| 1777949054 | 12.78° C | 81% | 1009.8 hPa | 3.3 mm | - | - | - |
| 1777948515 | 12.78° C | 80% | 1009.8 hPa | 3.05 mm | - | - | - |
| 1777947976 | 12.78° C | 80% | 1009.9 hPa | 2.29 mm | - | - | - |
| 1777947434 | 12.78° C | 80% | 1009.9 hPa | 1.78 mm | - | - | - |
* Rain latest hour (hover to see other rain measurements)
** Current wind speed in m/s (hover to see current wind gust speed)